TimeMDT,TemperatureF,Dew PointF,Humidity,Sea Level PressureIn,VisibilityMPH,Wind Direction,Wind SpeedMPH,Gust SpeedMPH,PrecipitationIn,Events,Conditions,WindDirDegrees,DateUTC
12:53 AM,42.1,36.0,79,30.30,10.0,NW,5.8,-,N/A,,Clear,320,2012-10-01 06:53:00
1:53 AM,39.0,35.1,86,30.30,10.0,NW,5.8,-,N/A,,Clear,310,2012-10-01 07:53:00
2:53 AM,39.9,35.1,83,30.31,10.0,SW,4.6,-,N/A,,Clear,230,2012-10-01 08:53:00
3:53 AM,37.0,34.0,89,30.32,10.0,West,4.6,-,N/A,,Clear,280,2012-10-01 09:53:00
4:53 AM,37.0,35.1,93,30.33,10.0,NW,4.6,-,N/A,,Clear,310,2012-10-01 10:53:00
5:53 AM,33.8,32.0,93,30.28,10.0,NNE,8.1,-,N/A,,Clear,20,2012-10-01 11:53:00
6:53 AM,34.0,32.0,92,30.32,10.0,SE,3.5,-,N/A,,Clear,130,2012-10-01 12:53:00
7:53 AM,37.0,34.0,89,30.30,10.0,ESE,6.9,-,N/A,,Clear,120,2012-10-01 13:53:00
8:53 AM,44.1,37.0,76,30.27,10.0,ESE,8.1,-,N/A,,Clear,120,2012-10-01 14:53:00
9:53 AM,53.1,43.0,69,30.24,10.0,SE,10.4,-,N/A,,Clear,140,2012-10-01 15:53:00
10:53 AM,60.1,41.0,49,30.20,10.0,SSE,15.0,-,N/A,,Clear,150,2012-10-01 16:53:00
11:53 AM,62.6,41.0,45,30.13,10.0,SSE,15.0,20.7,N/A,,Clear,150,2012-10-01 17:53:00
12:53 PM,66.0,41.0,40,30.10,10.0,SSE,15.0,21.9,N/A,,Clear,150,2012-10-01 18:53:00
1:53 PM,71.1,41.0,34,30.03,10.0,SSE,12.7,-,N/A,,Clear,160,2012-10-01 19:53:00
2:53 PM,73.9,39.9,29,29.98,10.0,South,15.0,-,N/A,,Clear,190,2012-10-01 20:53:00
3:53 PM,75.9,37.9,25,29.92,10.0,SSW,13.8,-,N/A,,Clear,200,2012-10-01 21:53:00
4:53 PM,75.9,37.0,24,29.89,10.0,SW,12.7,-,N/A,,Clear,220,2012-10-01 22:53:00
5:53 PM,75.0,37.0,25,29.87,10.0,SW,10.4,-,N/A,,Clear,230,2012-10-01 23:53:00
6:53 PM,68.0,37.0,32,29.85,10.0,SSW,6.9,-,N/A,,Clear,200,2012-10-02 00:53:00
7:53 PM,64.9,36.0,34,29.81,10.0,South,6.9,-,N/A,,Clear,180,2012-10-02 01:53:00
8:53 PM,60.1,35.1,39,29.77,10.0,SSE,10.4,-,N/A,,Clear,150,2012-10-02 02:53:00
9:53 PM,61.0,39.9,46,29.71,10.0,SSE,9.2,-,N/A,,Clear,160,2012-10-02 03:53:00
10:53 PM,63.0,37.9,40,29.66,10.0,South,9.2,-,N/A,,Clear,170,2012-10-02 04:53:00
11:53 PM,63.0,37.0,38,29.63,10.0,South,9.2,-,N/A,,Clear,190,2012-10-02 05:53:00